Location: Napier
(39.4830°S, 176.9170°E)
Time: 03:18:49
(UTC+12:00)

COSMO-SKYMED 1 - Pass Details

Date: 15 August 2020
Orbit: 621 x 623 km, 97.9° (Epoch: 20 September)

Event Time Altitude Azimuth Distance (km) Brightness Sun altitude
Rises 17:58:01 0° 355° (N) 2,893 6.3 -5.2°
Reaches altitude 10° 18:00:18 10° 347° (NNW) 1,996 5.6 -5.7°
Maximum altitude 18:04:22 38° 278° (W) 963 4.4 -6.4°
Drops below altitude 10° 18:08:29 10° 209° (SSW) 2,024 5.4 -7.2°
Sets 18:10:50 0° 201° (SSW) 2,940 6.2 -7.6°
